Main page
METAR-TAF:

METAR-TAF

Airports :

Johnson County Executive Airport

Olathe, Kansas, United States

latitude: 38-51-00N, longitude: 094-44-21W, elevation: 1096 ft

Current weather observation

The report was made 58 minutes ago, at 01:53 UTC
Wind 8 mph from the South
Temperature 90°F
Humidity 52%
Pressure 29.81 in. Hg
Visibility: 10 miles
Clear sky

METAR: KOJC 250153Z 19007KT 10SM CLR 32/21 A2981 RMK AO2 SLPNO T03220206

Time: 21:51 (02:51 UTC)


TAF: missing

Weather observations and forecasts of more than 4000 airports (METAR and TAF reports).

The available stations are represented by yellow and red dots on the map.

Hover mouse over dot to see the name of the station.

Then click to see weather observations and forecasts.

To change the map : click on the green buttons with a black cross to zoom in, on the green button with a dash to zoom out, or on the green arrows for adjacent maps.


METAR-TAF: